User: anonymous
Location: Mentone
(34.5413°N, 85.5351°W)
Time: 06:57:50
(UTC-05:00)
Language:

Okean O Rocket - Orbit

View from above orbital plane
View from above orbital plane
View from above satellite
View from above satellite

Ground track
Ground track

The orbit data is extracted from the following two-line orbital elements,

1 25861U 99039B   14293.51501394  .00000780  00000-0  11568-3 0  7693
2 25861 097.9668 250.8743 0014816 335.7263 139.8434 14.77818641822378
Epoch (UTC): 20 October 2014 12:21:37
Eccentricity: 0.0014816
inclination: 97.9668°
perigee height: 626 km
apogee height: 646 km
right ascension of ascending node: 250.8743°
argument of perigee: 335.7263°
revolutions per day: 14.77818641
mean anomaly at epoch: 139.8434°
orbit number at epoch: 82237

The dashed part of the orbit path shows where the satellite is in the earth's shadow,  

DLR